Location: Newark
(31.5350°N, 35.0986°E)
Time: 05:42:19
(UTC+00:00)

Courier 1B - Pass Details

Date: 29 September 2019
Orbit: 962 x 1209 km, 28.3° (Epoch: 21 October)

Event Time Altitude Azimuth Distance (km) Brightness Sun altitude
Exits shadow 02:22:57 22° 259° (W) 1,955 8.5 -15.5°
Maximum altitude 02:27:13 68° 182° (S) 1,053 7.6 -14.6°
Drops below altitude 10° 02:33:55 10° 101° (E) 2,797 11.2 -13.2°
Sets 02:36:41 0° 98° (E) 3,784 12.3 -12.6°
